New Roads False River Regiona, LA

5:01 AM CDT on August 25, 2019 (GMT -0500)
False River

Weather History for KHZR - June, 2019

Change the Weather History Date:

Thursday, June 13, 2019

  Actual Average (KBTR) Record (KBTR)
Temperature  
Mean Temperature 74 °F -  
Max Temperature 84 °F 90 °F 99 °F (1902)
Min Temperature 64 °F 70 °F 55 °F (1913)
Cooling Degree Days 9    
Growing Degree Days 24 (Base 50)    
Moisture  
Dew Point 62 °F    
Average Humidity 69    
Maximum Humidity 100    
Minimum Humidity 35    
Precipitation  
Precipitation 0.00 in - - ()
Sea Level Pressure  
Sea Level Pressure 30.04 in    
Wind  
Wind Speed 3 mph ()    
Max Wind Speed 12 mph    
Max Gust Speed -    
Visibility 10.0 miles    
Events      
Averages and records for this station are not official NWS values.
T = Trace of Precipitation, MM = Missing Value Source: Averaged Metar Reports

Daily Weather History Graph

Daily Weather History Graph

Search for Another Location

Airport or City:

Astronomy

Jun. 13, 2019 Rise Set
Actual Time 6:02 AM CDT 8:09 PM CDT
Civil Twilight 5:34 AM CDT 8:37 PM CDT
Nautical Twilight 5:01 AM CDT 9:10 PM CDT
Astronomical Twilight 4:25 AM CDT 9:47 PM CDT
Moon 4:40 PM CDT (6/13) 3:29 AM CDT (6/13)
Length of Visible Light 15h 02m
Length of Day
14h 07m
Waxing Gibbous, 85% of the Moon is Illuminated
Jun 13
Waxing Gibbous
Jun 17
Full
Jun 25
Last Quarter
Jul 2
New
Jul 9
First Quarter

Hourly Weather History & Observations

Time (CDT) Temp. Heat Index Dew Point Humidity Pressure Visibility Wind Dir Wind Speed Gust Speed Precip Events Conditions
12:54 AM 66.2 °F - 64.4 °F 94% 30.00 in 10.0 mi Calm Calm - N/A   Clear
1:15 AM 66.2 °F - 64.4 °F 94% 30.00 in 10.0 mi Calm Calm - N/A   Clear
1:34 AM 66.2 °F - 62.6 °F 88% 30.00 in 10.0 mi Calm Calm - N/A   Clear
1:56 AM 66.2 °F - 64.4 °F 94% 30.00 in 10.0 mi Calm Calm - N/A   Clear
2:14 AM 66.2 °F - 64.4 °F 94% 30.00 in 10.0 mi Calm Calm - N/A   Clear
2:34 AM 66.2 °F - 64.4 °F 94% 30.00 in 10.0 mi Calm Calm - N/A   Clear
2:54 AM 66.2 °F - 64.4 °F 94% 30.00 in 10.0 mi Calm Calm - N/A   Clear
3:14 AM 64.4 °F - 64.4 °F 100% 30.00 in 10.0 mi Calm Calm - N/A   Clear
3:54 AM 64.4 °F - 64.4 °F 100% 30.00 in 10.0 mi Calm Calm - N/A   Clear
4:14 AM 64.4 °F - 64.4 °F 100% 30.00 in 10.0 mi Calm Calm - N/A   Clear
4:35 AM 64.4 °F - 64.4 °F 100% 30.00 in 10.0 mi Calm Calm - N/A   Clear
4:54 AM 64.4 °F - 64.4 °F 100% 30.00 in 10.0 mi Calm Calm - N/A   Clear
5:14 AM 64.4 °F - 64.4 °F 100% 30.00 in 10.0 mi Calm Calm - N/A   Clear
5:36 AM 64.4 °F - 64.4 °F 100% 30.01 in 10.0 mi Calm Calm - N/A   Clear
5:55 AM 64.4 °F - 64.4 °F 100% 30.01 in 10.0 mi Calm Calm - N/A   Clear
6:16 AM 64.4 °F - 64.4 °F 100% 30.02 in 10.0 mi Calm Calm - N/A   Clear
6:34 AM 64.4 °F - 64.4 °F 100% 30.02 in 10.0 mi Calm Calm - N/A   Clear
6:54 AM 66.2 °F - 66.2 °F 100% 30.03 in 10.0 mi Calm Calm - N/A   Clear
7:36 AM 71.6 °F - 69.8 °F 94% 30.04 in 10.0 mi Calm Calm - N/A   Clear
7:55 AM 71.6 °F - 69.8 °F 94% 30.04 in 10.0 mi Calm Calm - N/A   Clear
8:14 AM 73.4 °F - 68.0 °F 83% 30.05 in 10.0 mi NNW 3.5 mph - N/A   Clear
8:36 AM 75.2 °F - 66.2 °F 73% 30.05 in 10.0 mi NNE 5.8 mph - N/A   Clear
8:57 AM 77.0 °F - 64.4 °F 65% 30.06 in 10.0 mi North 4.6 mph - N/A   Clear
9:15 AM 78.8 °F - 64.4 °F 61% 30.06 in 10.0 mi North 4.6 mph - N/A   Clear
9:34 AM 78.8 °F - 64.4 °F 61% 30.06 in 10.0 mi North 6.9 mph - N/A   Clear
10:36 AM 80.6 °F 82.3 °F 64.4 °F 58% 30.07 in 10.0 mi NNE 5.8 mph - N/A   Clear
11:14 AM 82.4 °F 83.9 °F 64.4 °F 54% 30.07 in 10.0 mi NNW 5.8 mph - N/A   Clear
11:34 AM 82.4 °F 83.9 °F 64.4 °F 54% 30.07 in 10.0 mi NNW 5.8 mph - N/A   Clear
11:54 AM 82.4 °F 83.9 °F 64.4 °F 54% 30.07 in 10.0 mi NW 9.2 mph - N/A   Clear
12:14 PM 82.4 °F 83.9 °F 64.4 °F 54% 30.07 in 10.0 mi NW 4.6 mph - N/A   Clear
12:34 PM 84.2 °F 85.0 °F 62.6 °F 48% 30.07 in 10.0 mi NW 4.6 mph - N/A   Clear
12:57 PM 84.2 °F 85.0 °F 62.6 °F 48% 30.07 in 10.0 mi North 8.1 mph - N/A   Clear
1:14 PM 84.2 °F 85.0 °F 62.6 °F 48% 30.07 in 10.0 mi North 9.2 mph - N/A   Clear
1:34 PM 84.2 °F 85.6 °F 64.4 °F 51% 30.06 in 10.0 mi NW 8.1 mph - N/A   Clear
1:54 PM 84.2 °F 85.6 °F 64.4 °F 51% 30.06 in 10.0 mi NW 6.9 mph - N/A   Clear
2:14 PM 84.2 °F 85.0 °F 62.6 °F 48% 30.05 in 10.0 mi NNW 9.2 mph - N/A   Clear
2:36 PM 84.2 °F 85.0 °F 62.6 °F 48% 30.05 in 10.0 mi NW 8.1 mph - N/A   Clear
2:55 PM 84.2 °F 83.8 °F 59.0 °F 42% 30.06 in 10.0 mi WNW 6.9 mph - N/A   Clear
3:34 PM 84.2 °F 82.8 °F 53.6 °F 35% 30.06 in 10.0 mi NW 9.2 mph - N/A   Clear
3:54 PM 84.2 °F 83.0 °F 55.4 °F 37% 30.05 in 10.0 mi NNW 5.8 mph - N/A   Clear
4:15 PM 84.2 °F 83.0 °F 55.4 °F 37% 30.05 in 10.0 mi NNW 9.2 mph - N/A   Clear
4:34 PM 84.2 °F 82.8 °F 53.6 °F 35% 30.05 in 10.0 mi NNW 11.5 mph - N/A   Clear
4:54 PM 84.2 °F 83.0 °F 55.4 °F 37% 30.04 in 10.0 mi NNW 8.1 mph - N/A   Clear
5:14 PM 84.2 °F 83.0 °F 55.4 °F 37% 30.04 in 10.0 mi NNW 8.1 mph - N/A   Clear
5:34 PM 84.2 °F 83.0 °F 55.4 °F 37% 30.04 in 10.0 mi NNW 8.1 mph - N/A   Clear
5:54 PM 84.2 °F 83.0 °F 55.4 °F 37% 30.04 in 10.0 mi NNW 8.1 mph - N/A   Clear
6:34 PM 84.2 °F 83.0 °F 55.4 °F 37% 30.03 in 10.0 mi NNW 5.8 mph - N/A   Clear
6:54 PM 82.4 °F 82.0 °F 57.2 °F 42% 30.03 in 10.0 mi NNW 5.8 mph - N/A   Clear
7:14 PM 80.6 °F 81.1 °F 59.0 °F 48% 30.04 in 10.0 mi NNW 4.6 mph - N/A   Clear
7:34 PM 80.6 °F 81.1 °F 59.0 °F 48% 30.04 in 10.0 mi North 5.8 mph - N/A   Clear
7:54 PM 78.8 °F - 60.8 °F 54% 30.04 in 10.0 mi NNW 6.9 mph - N/A   Clear
8:14 PM 75.2 °F - 60.8 °F 61% 30.04 in 10.0 mi North 5.8 mph - N/A   Clear
8:34 PM 71.6 °F - 62.6 °F 73% 30.04 in 10.0 mi North 4.6 mph - N/A   Clear
8:54 PM 71.6 °F - 62.6 °F 73% 30.05 in 10.0 mi North 4.6 mph - N/A   Clear
9:14 PM 71.6 °F - 62.6 °F 73% 30.05 in 10.0 mi North 5.8 mph - N/A   Clear
9:35 PM 69.8 °F - 62.6 °F 78% 30.06 in 10.0 mi NNE 3.5 mph - N/A   Clear
9:54 PM 71.6 °F - 62.6 °F 73% 30.06 in 10.0 mi NNE 3.5 mph - N/A   Clear
10:16 PM 71.6 °F - 62.6 °F 73% 30.07 in 10.0 mi NE 3.5 mph - N/A   Clear
10:34 PM 71.6 °F - 62.6 °F 73% 30.08 in 10.0 mi ENE 3.5 mph - N/A   Clear
10:54 PM 71.6 °F - 60.8 °F 69% 30.08 in 10.0 mi NE 5.8 mph - N/A   Clear
11:16 PM 69.8 °F - 60.8 °F 73% 30.08 in 10.0 mi Calm Calm - N/A   Clear
11:36 PM 71.6 °F - 60.8 °F 69% 30.08 in 10.0 mi NE 4.6 mph - N/A   Clear
11:55 PM 69.8 °F - 59.0 °F 68% 30.08 in 7.0 mi ENE 5.8 mph - N/A   Clear